• In Austria
  • List of Countries
  • For 7 days
  • Water Temperature
  • Satellite Maps
  • Weather Map
  • News
  • Weather Widgets
  • user-avatar
    Login

    Hourly Weather Batina

    Today, 20 May, Sunday

    Time Temperature Precipitation Wind Pressure Humidity
    00:00 +15°C° 0 mm 2 mps 668 mmHg 81%
    01:00 +15°C° 0.3 mm 2 mps 668 mmHg 82%
    02:00 +15°C° 0.3 mm 2 mps 668 mmHg 82%
    03:00 +15°C° 0.3 mm 2 mps 668 mmHg 83%
    04:00 +15°C° 0.2 mm 2 mps 668 mmHg 83%
    05:00 +15°C° 0.2 mm 2 mps 668 mmHg 82%
    06:00 +15°C° 0 mm 2 mps 668 mmHg 80%
    07:00 +16°C° 0.4 mm 2 mps 668 mmHg 76%
    08:00 +16°C° 0.4 mm 2 mps 668 mmHg 72%
    09:00 +17°C° 0.4 mm 2 mps 668 mmHg 67%
    10:00 +18°C° 0.6 mm 3 mps 669 mmHg 64%
    11:00 +19°C° 0.6 mm 3 mps 669 mmHg 60%
    12:00 +19°C° 0.6 mm 3 mps 669 mmHg 57%
    13:00 +20°C° 0.5 mm 3 mps 668 mmHg 55%
    14:00 +20°C° 0.5 mm 4 mps 668 mmHg 53%
    15:00 +20°C° 0.5 mm 4 mps 668 mmHg 52%
    16:00 +20°C° 0.6 mm 3 mps 668 mmHg 55%
    17:00 +19°C° 0.6 mm 3 mps 667 mmHg 58%
    18:00 +18°C° 0.6 mm 3 mps 667 mmHg 61%
    19:00 +18°C° 0.3 mm 2 mps 668 mmHg 65%
    20:00 +17°C° 0.3 mm 2 mps 668 mmHg 69%
    21:00 +16°C° 0.3 mm 2 mps 668 mmHg 74%
    22:00 +16°C° 0.8 mm 2 mps 668 mmHg 75%
    23:00 +16°C° 0.8 mm 2 mps 668 mmHg 77%

    Tomorrow, 21 May, Monday

    Time Temperature Precipitation Wind Pressure Humidity
    00:00 +15°C° 0.8 mm 1 mps 668 mmHg 79%
    01:00 +15°C° 0.1 mm 1 mps 667 mmHg 78%
    02:00 +15°C° 0.1 mm 1 mps 667 mmHg 77%
    03:00 +15°C° 0.1 mm 1 mps 667 mmHg 76%
    04:00 +15°C° 0 mm 1 mps 667 mmHg 73%
    05:00 +16°C° 0 mm 1 mps 668 mmHg 71%
    06:00 +16°C° 0 mm 1 mps 668 mmHg 68%
    07:00 +18°C° 0 mm 1 mps 668 mmHg 63%
    08:00 +19°C° 0 mm 1 mps 668 mmHg 57%
    09:00 +19°C° 0 mm 2 mps 669 mmHg 52%
    10:00 +20°C° 0.1 mm 2 mps 669 mmHg 48%
    11:00 +21°C° 0.1 mm 3 mps 669 mmHg 43%
    12:00 +22°C° 0.1 mm 4 mps 669 mmHg 39%
    13:00 +23°C° 0.1 mm 4 mps 669 mmHg 39%
    14:00 +23°C° 0.1 mm 4 mps 669 mmHg 38%
    15:00 +23°C° 0.1 mm 4 mps 668 mmHg 37%
    16:00 +22°C° 0.2 mm 3 mps 668 mmHg 40%
    17:00 +21°C° 0.2 mm 3 mps 668 mmHg 43%
    18:00 +21°C° 0.2 mm 3 mps 668 mmHg 46%
    19:00 +20°C° 0.2 mm 2 mps 668 mmHg 52%
    20:00 +19°C° 0.2 mm 2 mps 669 mmHg 57%
    21:00 +19°C° 0.2 mm 1 mps 669 mmHg 62%
    22:00 +19°C° 0.1 mm 1 mps 669 mmHg 65%
    23:00 +18°C° 0.1 mm 1 mps 669 mmHg 68%

    Day after tomorrow, 22 May, Tuesday

    Time Temperature Precipitation Wind Pressure Humidity
    00:00 +17°C° 0.1 mm 2 mps 669 mmHg 71%
    01:00 +18°C° 0.3 mm 1 mps 669 mmHg 73%
    02:00 +16°C° 0.3 mm 1 mps 668 mmHg 74%
    03:00 +16°C° 0.3 mm 1 mps 668 mmHg 75%
    04:00 +16°C° 0.1 mm 1 mps 669 mmHg 74%
    05:00 +16°C° 0.1 mm 1 mps 669 mmHg 72%
    06:00 +17°C° 0.1 mm 2 mps 669 mmHg 71%
    07:00 +19°C° 0.3 mm 1 mps 669 mmHg 63%
    08:00 +20°C° 0.3 mm 1 mps 670 mmHg 56%
    09:00 +21°C° 0.3 mm 1 mps 670 mmHg 48%
    10:00 +22°C° 0.2 mm 1 mps 670 mmHg 45%
    11:00 +23°C° 0.2 mm 2 mps 670 mmHg 41%
    12:00 +23°C° 0.2 mm 2 mps 671 mmHg 38%
    13:00 +24°C° 0.1 mm 3 mps 671 mmHg 37%
    14:00 +24°C° 0.1 mm 3 mps 671 mmHg 36%
    15:00 +23°C° 0.1 mm 4 mps 670 mmHg 36%
    16:00 +22°C° 0.3 mm 4 mps 670 mmHg 41%
    17:00 +21°C° 0.3 mm 4 mps 670 mmHg 46%
    18:00 +21°C° 0.3 mm 4 mps 670 mmHg 51%
    19:00 +20°C° 0.1 mm 3 mps 671 mmHg 58%
    20:00 +19°C° 0.1 mm 3 mps 671 mmHg 65%
    21:00 +18°C° 0.1 mm 2 mps 672 mmHg 72%
    22:00 +17°C° 0 mm 2 mps 672 mmHg 75%
    23:00 +17°C° 0 mm 2 mps 671 mmHg 77%

    23 May, Wednesday

    Time Temperature Precipitation Wind Pressure Humidity
    00:00 +16°C° 0 mm 2 mps 671 mmHg 80%
    01:00 +16°C° 0 mm 1 mps 671 mmHg 80%
    02:00 +15°C° 0 mm 1 mps 671 mmHg 80%
    03:00 +15°C° 0 mm 1 mps 671 mmHg 79%
    04:00 +16°C° 0 mm 1 mps 671 mmHg 75%
    05:00 +16°C° 0 mm 1 mps 672 mmHg 71%
    06:00 +18°C° 0 mm 1 mps 672 mmHg 66%
    07:00 +20°C° 0 mm 1 mps 673 mmHg 59%
    08:00 +21°C° 0 mm 1 mps 673 mmHg 52%
    09:00 +21°C° 0 mm 2 mps 674 mmHg 44%
    10:00 +23°C° 0 mm 2 mps 674 mmHg 40%
    11:00 +24°C° 0 mm 3 mps 674 mmHg 36%
    12:00 +25°C° 0 mm 3 mps 674 mmHg 33%
    13:00 +26°C° 0 mm 3 mps 674 mmHg 32%
    14:00 +26°C° 0 mm 3 mps 674 mmHg 31%
    15:00 +26°C° 0 mm 4 mps 673 mmHg 30%
    16:00 +26°C° 0 mm 3 mps 673 mmHg 33%
    17:00 +25°C° 0 mm 3 mps 673 mmHg 36%
    18:00 +25°C° 0 mm 3 mps 673 mmHg 39%
    19:00 +24°C° 0 mm 2 mps 673 mmHg 44%
    20:00 +23°C° 0 mm 2 mps 673 mmHg 49%
    21:00 +21°C° 0 mm 1 mps 673 mmHg 54%
    22:00 +21°C° 0 mm 1 mps 673 mmHg 56%
    23:00 +20°C° 0 mm 1 mps 673 mmHg 57%

    24 May, Thursday

    Time Temperature Precipitation Wind Pressure Humidity
    00:00 +20°C° 0 mm 1 mps 672 mmHg 59%
    01:00 +20°C° 0 mm 1 mps 672 mmHg 59%
    02:00 +19°C° 0 mm 1 mps 672 mmHg 58%
    03:00 +19°C° 0 mm 1 mps 671 mmHg 58%
    04:00 +20°C° 0 mm 1 mps 672 mmHg 55%
    05:00 +21°C° 0 mm 1 mps 672 mmHg 51%
    06:00 +22°C° 0 mm 1 mps 672 mmHg 48%
    07:00 +23°C° 0 mm 2 mps 673 mmHg 44%
    08:00 +24°C° 0 mm 2 mps 673 mmHg 40%
    09:00 +26°C° 0 mm 3 mps 674 mmHg 36%
    10:00 +26°C° 0 mm 3 mps 674 mmHg 34%
    11:00 +27°C° 0 mm 3 mps 674 mmHg 33%
    12:00 +28°C° 0 mm 4 mps 674 mmHg 31%
    13:00 +28°C° 0 mm 4 mps 673 mmHg 31%
    14:00 +28°C° 0 mm 3 mps 673 mmHg 30%
    15:00 +29°C° 0 mm 3 mps 673 mmHg 30%
    16:00 +28°C° 0 mm 3 mps 672 mmHg 32%
    17:00 +28°C° 0 mm 3 mps 672 mmHg 35%
    18:00 +27°C° 0 mm 2 mps 672 mmHg 37%
    19:00 +26°C° 0 mm 2 mps 672 mmHg 42%
    20:00 +25°C° 0 mm 1 mps 672 mmHg 48%
    21:00 +24°C° 0 mm 1 mps 672 mmHg 53%
    22:00 +23°C° 0 mm 1 mps 672 mmHg 55%
    23:00 +20°C° 0 mm 0 mps 672 mmHg 57%

    25 May, Friday

    Time Temperature Precipitation Wind Pressure Humidity
    00:00 +20°C° 0 mm 0 mps 671 mmHg 59%
    01:00 +20°C° 0 mm 0 mps 671 mmHg 59%
    02:00 +21°C° 0 mm 1 mps 671 mmHg 58%
    03:00 +21°C° 0 mm 1 mps 670 mmHg 58%
    04:00 +22°C° 0 mm 1 mps 671 mmHg 54%
    05:00 +23°C° 0 mm 1 mps 671 mmHg 51%
    06:00 +24°C° 0 mm 1 mps 671 mmHg 47%
    07:00 +25°C° 0 mm 1 mps 672 mmHg 41%
    08:00 +26°C° 0 mm 2 mps 672 mmHg 36%
    09:00 +28°C° 0 mm 2 mps 672 mmHg 30%
    10:00 +29°C° 0 mm 2 mps 672 mmHg 28%
    11:00 +29°C° 0 mm 2 mps 672 mmHg 26%
    12:00 +30°C° 0 mm 2 mps 672 mmHg 23%
    13:00 +30°C° 0 mm 2 mps 672 mmHg 23%
    14:00 +31°C° 0 mm 2 mps 672 mmHg 22%
    15:00 +31°C° 0 mm 3 mps 672 mmHg 21%
    16:00 +30°C° 0 mm 3 mps 671 mmHg 24%
    17:00 +30°C° 0 mm 3 mps 671 mmHg 27%
    18:00 +29°C° 0 mm 3 mps 671 mmHg 30%
    19:00 +28°C° 0 mm 2 mps 671 mmHg 35%
    20:00 +26°C° 0 mm 2 mps 671 mmHg 40%
    21:00 +25°C° 0 mm 1 mps 671 mmHg 45%
    22:00 +24°C° 0 mm 1 mps 671 mmHg 47%
    23:00 +24°C° 0 mm 1 mps 671 mmHg 49%
    Show more